IZ1RFL-3 Weather Reports


time (UTC)temp
F
wind
direction
speed
knots
gust
knots
rain 1hr
in
rain 24hr
in
rain mn
in
humidity
%
barometer
mb
20260508031608 55 0 0.0 0.0 0.00 0.00 0.00 74 1015.3
20260508030108 55 0 0.0 0.0 0.00 0.00 0.00 74 1015.3
20260508024608 55 0 0.0 0.0 0.00 0.00 0.00 74 1015.3
20260508023108 56 0 0.0 0.0 0.00 0.00 0.00 73 1015.2
20260508021608 56 0 0.0 0.0 0.00 0.00 0.00 73 1015.2
20260508020108 56 0 0.0 0.0 0.00 0.00 0.00 74 1015.2
20260508014608 56 0 0.0 0.0 0.00 0.00 0.00 73 1015.1
20260508013108 56 0 0.0 0.0 0.00 0.00 0.00 73 1015.2
20260508011608 56 0 0.0 0.0 0.00 0.00 0.00 73 1015.3
20260508010108 56 0 0.0 0.0 0.00 0.00 0.00 73 1015.4
20260508004608 56 0 0.0 0.0 0.00 0.00 0.00 72 1015.3
20260508003108 55 0 0.0 0.0 0.00 0.00 0.00 73 1015.4
20260508001608 57 0 0.0 0.0 0.00 0.00 0.00 71 1015.3
20260508000108 56 0 0.0 0.0 0.00 0.00 0.00 71 1015.5
20260507234608 57 0 0.0 0.0 0.00 0.00 0.00 69 1015.5
20260507233108 56 0 0.0 0.0 0.00 0.00 0.00 71 1015.8
20260507231608 58 0 0.0 0.0 0.00 0.00 0.00 66 1015.8
20260507230107 58 0 0.0 0.0 0.00 0.00 0.00 64 1015.7
20260507224608 59 0 0.0 0.0 0.00 0.00 0.00 62 1015.6
20260507223108 59 0 0.0 0.0 0.00 0.00 0.00 63 1015.6
20260507221608 59 0 0.0 0.0 0.00 0.00 0.00 63 1015.5
20260507220108 59 0 0.0 0.0 0.00 0.00 0.00 63 1015.5
20260507214607 59 0 0.0 0.0 0.00 0.00 0.00 63 1015.3
20260507213108 60 0 0.0 0.0 0.00 0.00 0.00 61 1015.2
20260507211607 60 0 0.0 0.0 0.00 0.00 0.00 60 1015.1
20260507210108 61 0 0.0 0.0 0.00 0.00 0.00 59 1015.1
20260507204608 61 0 0.0 0.0 0.00 0.00 0.00 57 1015.0
20260507203107 61 0 0.0 0.0 0.00 0.00 0.00 57 1015.0
20260507201607 62 0 0.0 0.0 0.00 0.00 0.00 56 1015.0
20260507200107 62 0 0.0 0.0 0.00 0.00 0.00 56 1014.7
20260507194607 62 0 0.0 0.0 0.00 0.00 0.00 55 1014.5
20260507193108 62 0 0.0 0.0 0.00 0.00 0.00 54 1014.3
20260507191607 62 0 0.0 0.0 0.00 0.00 0.00 53 1014.2
20260507190107 62 0 0.0 0.0 0.00 0.00 0.00 53 1014.1
20260507184607 63 0 0.0 0.0 0.00 0.00 0.00 51 1014.0
20260507183107 64 0 0.0 0.0 0.00 0.00 0.00 49 1013.9
20260507181607 64 0 0.0 0.0 0.00 0.00 0.00 49 1013.8
20260507180108 64 0 0.0 0.0 0.00 0.00 0.00 49 1013.8
20260507174607 64 0 0.0 0.0 0.00 0.00 0.00 49 1013.7
20260507173107 65 0 0.0 0.0 0.00 0.00 0.00 47 1013.7
20260507171607 66 0 0.0 0.0 0.00 0.00 0.00 45 1013.5
20260507170107 66 0 0.0 0.0 0.00 0.00 0.00 46 1013.4
20260507164608 66 0 0.0 0.0 0.00 0.00 0.00 48 1013.4
20260507163107 66 0 0.0 0.0 0.00 0.00 0.00 53 1013.4
20260507161607 66 0 0.0 0.0 0.00 0.00 0.00 52 1013.3
20260507160107 68 0 0.0 0.0 0.00 0.00 0.00 46 1013.3
20260507154607 70 0 0.0 0.0 0.00 0.00 0.00 38 1013.2
20260507153107 70 0 0.0 0.0 0.00 0.00 0.00 36 1013.3
20260507151607 71 0 0.0 0.0 0.00 0.00 0.00 35 1013.3
20260507150107 71 0 0.0 0.0 0.00 0.00 0.00 32 1013.4
20260507144607 70 0 0.0 0.0 0.00 0.00 0.00 33 1013.4
20260507143107 71 0 0.0 0.0 0.00 0.00 0.00 37 1013.5
20260507141607 71 0 0.0 0.0 0.00 0.00 0.00 33 1013.7
20260507140107 72 0 0.0 0.0 0.00 0.00 0.00 35 1013.9
20260507134607 71 0 0.0 0.0 0.00 0.00 0.00 39 1014.0
20260507133107 69 0 0.0 0.0 0.00 0.00 0.00 40 1014.2
20260507131607 69 0 0.0 0.0 0.00 0.00 0.00 43 1014.2
20260507130107 69 0 0.0 0.0 0.00 0.00 0.00 42 1014.3
20260507124607 70 0 0.0 0.0 0.00 0.00 0.00 37 1014.4
20260507123107 71 0 0.0 0.0 0.00 0.00 0.00 38 1014.5
20260507121607 67 0 0.0 0.0 0.00 0.00 0.00 43 1014.7
20260507120107 73 0 0.0 0.0 0.00 0.00 0.00 39 1014.9
20260507114607 70 0 0.0 0.0 0.00 0.00 0.00 42 1014.9
20260507113107 68 0 0.0 0.0 0.00 0.00 0.00 48 1015.1
20260507111607 67 0 0.0 0.0 0.00 0.00 0.00 45 1015.3
20260507110107 70 0 0.0 0.0 0.00 0.00 0.00 44 1015.4
20260507104607 70 0 0.0 0.0 0.00 0.00 0.00 47 1015.5
20260507103107 66 0 0.0 0.0 0.00 0.00 0.00 53 1015.7
20260507101607 66 0 0.0 0.0 0.00 0.00 0.00 52 1015.6
20260507100107 68 0 0.0 0.0 0.00 0.00 0.00 49 1015.8
20260507094607 66 0 0.0 0.0 0.00 0.00 0.00 52 1015.7
20260507093107 63 0 0.0 0.0 0.00 0.00 0.00 60 1015.7
20260507091607 63 0 0.0 0.0 0.00 0.00 0.00 63 1015.7
20260507090107 63 0 0.0 0.0 0.00 0.00 0.00 60 1015.7
20260507084607 62 0 0.0 0.0 0.00 0.00 0.00 62 1015.5
20260507083107 60 0 0.0 0.0 0.00 0.00 0.00 69 1015.4
20260507081607 62 0 0.0 0.0 0.00 0.00 0.00 64 1015.4
20260507080107 62 0 0.0 0.0 0.00 0.00 0.00 63 1015.3
20260507074607 60 0 0.0 0.0 0.00 0.00 0.00 66 1015.2
20260507073107 58 0 0.0 0.0 0.00 0.00 0.00 70 1015.2
20260507071607 60 0 0.0 0.0 0.00 0.00 0.00 71 1015.1
20260507070107 57 0 0.0 0.0 0.00 0.00 0.00 76 1015.0
20260507064607 56 0 0.0 0.0 0.00 0.00 0.00 77 1015.0
20260507063107 56 0 0.0 0.0 0.00 0.00 0.00 79 1014.9
20260507061607 55 0 0.0 0.0 0.00 0.00 0.00 80 1014.7
20260507060107 55 0 0.0 0.0 0.00 0.00 0.00 79 1014.6
20260507054607 55 0 0.0 0.0 0.00 0.00 0.00 80 1014.4
20260507053107 55 0 0.0 0.0 0.00 0.00 0.00 80 1014.2
20260507051607 55 0 0.0 0.0 0.00 0.00 0.00 80 1013.9
20260507050107 56 0 0.0 0.0 0.00 0.00 0.00 79 1013.6
20260507044607 55 0 0.0 0.0 0.00 0.00 0.00 80 1013.5
20260507043107 55 0 0.0 0.0 0.00 0.00 0.00 80 1013.4
20260507041607 55 0 0.0 0.0 0.00 0.00 0.00 80 1013.2
20260507040107 55 0 0.0 0.0 0.00 0.00 0.00 79 1013.4
20260507034607 55 0 0.0 0.0 0.00 0.00 0.00 81 1013.3
20260507033107 54 0 0.0 0.0 0.00 0.00 0.00 81 1013.1